[[{"header":{"parameterUnit":"m.s-1","parameterCategory":1,"la1":30.2991,"la2":30.254,"lo1":-89.0895,"lo2":-89.0444,"dy":0.0017,"dx":0.0017,"nx":28,"ny":28,"refTime":"2025-09-02T03:00:00:Z","depth":0,"parameterNumber":2,"parameterNumberName":"U-component_of_WINDS"},"data":[0,0,0,0,0,0,0,0,0,0,0,0,0,0,0,0,0,0,0,0,0,0,0,0,0,0,0,0,0,0,0,0,0,0,0,0,0,0,0,0,0,0,0,0,0,0,0,0,0,0,0,0,0,0,0,0,0,0,-4.0466,-4.0468,0,-4.0651,-4.0654,-4.0656,-4.0579,-4.0575,-4.0571,-4.0566,-4.0763,-4.0772,-4.0782,0,0,0,0,0,0,0,0,0,0,0,0,0,-4.005,-4.0058,-4.0466,-4.0468,-4.047,-4.0651,-4.0654,-4.0656,-4.058,-4.0575,-4.0569,-4.0564,-4.076,-4.0771,-4.0782,0,0,0,0,0,0,0,0,0,0,0,0,0,-4.0233,-4.0061,-4.0465,-4.0454,-4.0455,-4.0651,-4.0654,-4.0657,-4.0581,-4.0575,-4.0568,-4.0562,-4.0756,-4.077,-4.0784,-4.1004,0,0,-4.0827,-4.0833,0,0,0,0,0,0,0,0,-4.0222,-4.0248,-4.0453,-4.0455,-4.0456,-4.0585,-4.0579,-4.0773,-4.0583,-4.0534,-4.0566,-4.0559,-4.071,-4.0727,-4.0777,-4.1013,-4.1021,-4.0828,-4.0837,-4.0843,-4.0847,0,0,0,0,0,0,0,-4.021,-4.024,-4.0539,-4.0456,-4.0458,-4.0441,-4.046,-4.0616,-4.0657,-4.0537,-4.0532,-4.0555,-4.0709,-4.0764,-4.0781,-4.1024,-4.0828,-4.084,-4.0849,-4.0854,-4.1449,-4.1456,0,0,0,0,0,0,-4.0196,-4.023,-4.0533,-4.0545,-4.032,-4.0454,-4.0475,-4.0551,-4.0655,-4.0664,-4.056,-4.0551,-4.0743,-4.0765,-4.0788,-4.1051,-4.0843,-4.0856,-4.0864,-4.1442,-4.1451,-4.1459,0,0,0,0,0,0,-4.0188,-4.0224,-4.0526,-4.0386,-4.0423,-4.0468,-4.0554,-4.0558,-4.0612,-4.0672,-4.068,-4.0608,-4.0738,-4.0768,-4.095,-4.1057,-4.0862,-4.0875,-4.1433,-4.1445,-4.1455,-4.1581,0,0,0,0,0,0,-4.0176,-4.0221,-4.0304,-4.0388,-4.0431,-4.0684,-4.0561,-4.0566,-4.0636,-4.0625,-4.0719,-4.0728,-4.0735,-4.0929,-4.0964,-4.1073,-4.0886,-4.1424,-4.1438,-4.1451,-4.1567,-4.1595,-4.1618,0,0,0,0,0,-4.0161,-4.0334,-4.0309,-4.0346,-4.0535,-4.069,-4.0715,-4.0718,-4.0644,-4.0729,-4.0767,-4.0725,-4.1039,-4.0949,-4.0987,-4.1102,-4.1417,-4.1434,-4.145,-4.1556,-4.1589,-4.1617,0,0,0,0,0,0,-4.0264,-4.0345,-4.0318,-4.0523,-4.06,-4.0677,-4.0784,-4.0753,-4.0855,-4.0841,-4.0842,-4.0864,-4.1052,-4.1095,-4.0992,-4.1319,-4.1217,-4.1242,-4.1284,-4.1317,-4.1342,-4.1328,-4.0897,0,0,0,0,0,-4.031,-4.0428,-4.0492,-4.0667,-4.0707,-4.0739,-4.0806,-4.0802,-4.0883,-4.0916,-4.0968,-4.105,-4.1167,-4.1244,-4.1355,-4.1573,-4.1592,-4.167,-4.1696,-4.1716,-4.1738,-4.1856,-4.1892,-4.1513,-4.1513,-4.1513,0,0,-4.0408,-4.0466,-4.0541,-4.0689,-4.0748,-4.0871,-4.0767,-4.0902,-4.0993,-4.0937,-4.1111,-4.1152,-4.1244,-4.1444,-4.1535,-4.1486,-4.1847,-4.1738,-4.1754,-4.1765,-4.1877,-4.1913,-4.1945,-4.1524,-4.1522,-4.1521,0,0,-4.0647,-4.0703,-4.0854,-4.0915,-4.1005,-4.1025,-4.1061,-4.1143,-4.1167,-4.1341,-4.1301,-4.1411,-4.1613,-4.1679,-4.174,-4.2003,-4.1968,-4.2039,-4.2173,-4.2288,-4.2318,-4.2344,-4.2438,-4.2472,-4.2061,-4.2061,-4.2062,0,-4.0757,-4.0939,-4.0936,-4.1073,-4.114,-4.1092,-4.1245,-4.1305,-4.1428,-4.1476,-4.1418,-4.1669,-4.1728,-4.1943,-4.2007,-4.2057,-4.2099,-4.2029,-4.2313,-4.234,-4.2365,-4.2454,-4.249,-4.2069,-4.2068,-4.2068,-4.2067,0,-4.107,-4.1196,-4.1308,-4.1425,-4.1504,-4.1649,-4.1669,-4.175,-4.1738,-4.1764,-4.1943,-4.2011,-4.2134,-4.2185,-4.2176,-4.2399,-4.2365,-4.2311,-4.2209,-4.2409,-4.2493,-4.2527,-4.2081,-4.2078,-4.2076,-4.2074,0,0,-4.1381,-4.1492,-4.1533,-4.1585,-4.168,-4.1779,-4.1922,-4.204,-4.211,-4.2196,-4.2317,-4.2488,-4.2437,-4.2506,-4.2504,-4.2605,-4.2809,-4.2538,-4.254,-4.2586,-4.3059,-4.3099,-4.3139,-4.2785,-4.2792,-4.2797,-4.3051,0,-4.1628,-4.1876,-4.1876,-4.2106,-4.2223,-4.2178,-4.2303,-4.2376,-4.2404,-4.2509,-4.2541,-4.2661,-4.2586,-4.2627,-4.2724,-4.2763,-4.2904,-4.2745,-4.2899,-4.2905,-4.2878,-4.3183,-4.3227,-4.3463,-4.3084,-4.3089,-4.3094,0,-4.1949,-4.2043,-4.2283,-4.236,-4.2409,-4.2521,-4.2629,-4.2729,-4.2811,-4.2824,-4.29,-4.2882,-4.3029,-4.2922,-4.3125,-4.3016,-4.308,-4.3108,-4.3118,-4.3133,-4.3011,-4.3207,-4.3538,-4.3574,-4.3145,-4.3141,-4.3138,0,-4.2152,-4.2338,-4.2506,-4.2552,-4.2646,-4.2725,-4.2768,-4.2843,-4.2914,-4.3009,-4.3055,-4.3167,-4.3229,-4.3317,-4.333,-4.3251,-4.3535,-4.3428,-4.3551,-4.3551,-4.3614,-4.361,-4.396,-4.3654,-4.3654,-4.3653,-4.3652,0,-4.2427,-4.2576,-4.2597,-4.2701,-4.2866,-4.2866,-4.3031,-4.3068,-4.3134,-4.3245,-4.3214,-4.3319,-4.333,-4.3439,-4.3451,-4.3618,-4.3646,-4.3662,-4.3663,-4.3665,-4.3663,-4.3707,-4.3691,-4.3662,-4.366,-4.3658,-4.3657,0,-4.2682,-4.2702,-4.2882,-4.2955,-4.2977,-4.3096,-4.3159,-4.3258,-4.3282,-4.3423,-4.3456,-4.3495,-4.3622,-4.3643,-4.3793,-4.3801,-4.4,-4.3985,-4.3972,-4.397,-4.4091,-4.408,-4.4483,-4.4536,-4.4195,-4.4198,-4.4201,0,-4.2856,-4.2969,-4.3054,-4.3124,-4.3171,-4.3286,-4.3356,-4.3361,-4.3437,-4.3537,-4.3625,-4.3747,-4.3846,-4.405,-4.4093,-4.4207,-4.4195,-4.4328,-4.4212,-4.421,-4.4197,-4.419,-4.4201,-4.4351,-4.4355,-4.4358,-4.436,0,-4.3164,-4.3168,-4.327,-4.3377,-4.3462,-4.3547,-4.3627,-4.3687,-4.3702,-4.3789,-4.3916,-4.3992,-4.4143,-4.4266,-4.4379,-4.4425,-4.4397,-4.4396,-4.443,-4.4433,-4.4421,-4.4429,-4.4033,-4.4387,-4.4384,-4.4382,-4.4381,-4.438,-4.3384,-4.3482,-4.3556,-4.3671,-4.3731,-4.3806,-4.3903,-4.3938,-4.4043,-4.4165,-4.4161,-4.4301,-4.438,-4.4529,-4.4583,-4.4693,-4.4651,-4.4701,-4.4714,-4.4726,-4.4737,-4.4403,-4.4714,-4.4713,-4.4713,-4.4712,-4.4712,0,-4.369,-4.3735,-4.3841,-4.3952,-4.4043,-4.4004,-4.4091,-4.417,-4.4292,-4.4367,-4.4463,-4.461,-4.4728,-4.478,-4.4896,-4.4975,-4.4965,-4.5006,-4.5,-4.5011,-4.4769,-4.4727,-4.5012,-4.5012,-4.5012,-4.5012,-4.5012,-4.5012,-4.386,-4.4023,-4.4035,-4.4228,-4.4273,-4.4407,-4.446,-4.453,-4.4589,-4.4753,-4.485,-4.4881,-4.4948,-4.5068,-4.5176,-4.5188,-4.5233,-4.528,-4.5286,-4.5059,-4.5029,-4.5,-4.496,-4.529,-4.529,-4.552,-4.5522,-4.5523]},{"header":{"parameterUnit":"m.s-1","parameterCategory":1,"la1":30.2991,"la2":30.254,"lo1":-89.0895,"lo2":-89.0444,"dy":0.0017,"dx":0.0017,"nx":28,"ny":28,"refTime":"2025-09-02T03:00:00:Z","depth":0,"parameterNumber":3,"parameterNumberName":"V-component_of_WINDS"},"data":[0,0,0,0,0,0,0,0,0,0,0,0,0,0,0,0,0,0,0,0,0,0,0,0,0,0,0,0,0,0,0,0,0,0,0,0,0,0,0,0,0,0,0,0,0,0,0,0,0,0,0,0,0,0,0,0,0,0,-1.428,-1.428,0,-1.4275,-1.4275,-1.4275,-1.4276,-1.4276,-1.4276,-1.4276,-1.4269,-1.4269,-1.4269,0,0,0,0,0,0,0,0,0,0,0,0,0,-1.429,-1.4289,-1.428,-1.428,-1.428,-1.4275,-1.4275,-1.4275,-1.4276,-1.4276,-1.4276,-1.4276,-1.427,-1.4269,-1.4269,0,0,0,0,0,0,0,0,0,0,0,0,0,-1.4285,-1.4289,-1.428,-1.428,-1.428,-1.4275,-1.4275,-1.4275,-1.4276,-1.4276,-1.4276,-1.4276,-1.427,-1.4269,-1.4269,-1.4264,0,0,-1.4268,-1.4268,0,0,0,0,0,0,0,0,-1.4285,-1.4285,-1.428,-1.428,-1.428,-1.4276,-1.4276,-1.4271,-1.4276,-1.4277,-1.4276,-1.4276,-1.4272,-1.4271,-1.427,-1.4263,-1.4263,-1.4268,-1.4267,-1.4267,-1.4267,0,0,0,0,0,0,0,-1.4286,-1.4285,-1.4278,-1.428,-1.428,-1.428,-1.4279,-1.4275,-1.4274,-1.4277,-1.4277,-1.4277,-1.4271,-1.427,-1.4269,-1.4263,-1.4268,-1.4267,-1.4267,-1.4267,-1.4251,-1.4251,0,0,0,0,0,0,-1.4286,-1.4285,-1.4278,-1.4278,-1.4283,-1.4279,-1.4279,-1.4277,-1.4274,-1.4273,-1.4277,-1.4277,-1.4271,-1.427,-1.4269,-1.4262,-1.4267,-1.4267,-1.4267,-1.4251,-1.4251,-1.4251,0,0,0,0,0,0,-1.4286,-1.4286,-1.4279,-1.4282,-1.4281,-1.4279,-1.4277,-1.4277,-1.4276,-1.4273,-1.4273,-1.4275,-1.4271,-1.427,-1.4265,-1.4262,-1.4267,-1.4266,-1.4251,-1.4251,-1.4251,-1.4248,0,0,0,0,0,0,-1.4287,-1.4286,-1.4284,-1.4282,-1.4281,-1.4275,-1.4277,-1.4277,-1.4275,-1.4275,-1.4272,-1.4272,-1.4271,-1.4265,-1.4264,-1.4262,-1.4266,-1.4252,-1.4251,-1.4251,-1.4249,-1.4248,-1.4248,0,0,0,0,0,-1.4287,-1.4284,-1.4284,-1.4283,-1.4279,-1.4275,-1.4274,-1.4273,-1.4275,-1.4273,-1.4271,-1.4272,-1.4263,-1.4265,-1.4264,-1.4261,-1.4252,-1.4251,-1.4251,-1.4249,-1.4248,-1.4248,0,0,0,0,0,0,-1.4285,-1.4283,-1.4284,-1.4279,-1.4277,-1.4275,-1.4272,-1.4273,-1.427,-1.427,-1.4269,-1.4268,-1.4263,-1.4261,-1.4264,-1.4255,-1.4257,-1.4257,-1.4256,-1.4255,-1.4255,-1.4255,-1.4266,0,0,0,0,0,-1.4285,-1.4282,-1.428,-1.4276,-1.4275,-1.4274,-1.4272,-1.4272,-1.427,-1.4269,-1.4267,-1.4264,-1.426,-1.4258,-1.4254,-1.4249,-1.4247,-1.4246,-1.4245,-1.4245,-1.4244,-1.424,-1.4239,-1.4249,-1.4249,-1.4249,0,0,-1.4283,-1.4281,-1.428,-1.4276,-1.4274,-1.4271,-1.4273,-1.427,-1.4267,-1.4268,-1.4263,-1.4261,-1.4258,-1.4253,-1.425,-1.4251,-1.4241,-1.4244,-1.4244,-1.4243,-1.4239,-1.4239,-1.4238,-1.4249,-1.4249,-1.4249,0,0,-1.4278,-1.4277,-1.4273,-1.4272,-1.4269,-1.4268,-1.4267,-1.4265,-1.4264,-1.4259,-1.4259,-1.4256,-1.425,-1.4247,-1.4245,-1.4238,-1.4238,-1.4237,-1.4234,-1.423,-1.4229,-1.4228,-1.4225,-1.4224,-1.4237,-1.4237,-1.4237,0,-1.4276,-1.4272,-1.4271,-1.4268,-1.4266,-1.4267,-1.4263,-1.4261,-1.4257,-1.4255,-1.4257,-1.4249,-1.4247,-1.424,-1.4239,-1.4237,-1.4235,-1.4238,-1.4229,-1.4229,-1.4228,-1.4225,-1.4224,-1.4237,-1.4237,-1.4237,-1.4237,0,-1.4269,-1.4266,-1.4263,-1.426,-1.4258,-1.4254,-1.4253,-1.425,-1.425,-1.4249,-1.4243,-1.4241,-1.4237,-1.4235,-1.4235,-1.4228,-1.4229,-1.423,-1.4232,-1.4227,-1.4224,-1.4223,-1.4236,-1.4236,-1.4236,-1.4236,0,0,-1.4263,-1.4259,-1.4258,-1.4256,-1.4253,-1.4251,-1.4247,-1.4243,-1.424,-1.4238,-1.4234,-1.4228,-1.4229,-1.4227,-1.4226,-1.4223,-1.4217,-1.4224,-1.4224,-1.4222,-1.4208,-1.4207,-1.4206,-1.4217,-1.4217,-1.4216,-1.4208,0,-1.4257,-1.4251,-1.425,-1.4244,-1.424,-1.4241,-1.4237,-1.4234,-1.4233,-1.4229,-1.4228,-1.4224,-1.4225,-1.4224,-1.422,-1.4218,-1.4214,-1.4219,-1.4212,-1.4212,-1.4213,-1.4204,-1.4203,-1.4196,-1.4207,-1.4207,-1.4207,0,-1.425,-1.4247,-1.424,-1.4237,-1.4236,-1.4233,-1.4229,-1.4226,-1.4222,-1.4221,-1.4218,-1.4218,-1.4213,-1.4216,-1.4208,-1.4212,-1.4209,-1.4207,-1.4207,-1.4206,-1.4209,-1.4202,-1.4193,-1.4192,-1.4205,-1.4205,-1.4205,0,-1.4245,-1.424,-1.4235,-1.4233,-1.423,-1.4227,-1.4226,-1.4223,-1.422,-1.4216,-1.4214,-1.421,-1.4208,-1.4204,-1.4202,-1.4204,-1.4194,-1.4197,-1.4193,-1.4193,-1.419,-1.419,-1.418,-1.419,-1.419,-1.419,-1.419,0,-1.4239,-1.4234,-1.4233,-1.423,-1.4225,-1.4224,-1.4219,-1.4217,-1.4214,-1.421,-1.421,-1.4207,-1.4205,-1.42,-1.4199,-1.4192,-1.4191,-1.419,-1.4189,-1.4189,-1.4189,-1.4187,-1.4187,-1.4189,-1.4189,-1.4189,-1.419,0,-1.4233,-1.4231,-1.4226,-1.4223,-1.4222,-1.4219,-1.4216,-1.4212,-1.4211,-1.4206,-1.4204,-1.4202,-1.4197,-1.4194,-1.4188,-1.4187,-1.4179,-1.418,-1.418,-1.418,-1.4176,-1.4176,-1.4163,-1.4161,-1.4172,-1.4172,-1.4172,0,-1.4228,-1.4225,-1.4222,-1.4219,-1.4217,-1.4214,-1.4211,-1.421,-1.4207,-1.4203,-1.4199,-1.4194,-1.419,-1.4182,-1.4179,-1.4173,-1.4173,-1.4169,-1.4172,-1.4172,-1.4172,-1.4172,-1.4171,-1.4168,-1.4168,-1.4168,-1.4168,0,-1.422,-1.422,-1.4217,-1.4213,-1.421,-1.4206,-1.4203,-1.4201,-1.4199,-1.4196,-1.4191,-1.4187,-1.4181,-1.4175,-1.417,-1.4167,-1.4167,-1.4167,-1.4165,-1.4165,-1.4166,-1.4165,-1.4178,-1.4167,-1.4167,-1.4167,-1.4167,-1.4167,-1.4215,-1.4212,-1.4209,-1.4204,-1.4202,-1.4199,-1.4195,-1.4193,-1.4189,-1.4184,-1.4183,-1.4178,-1.4173,-1.4166,-1.4163,-1.4158,-1.4159,-1.4157,-1.4156,-1.4156,-1.4155,-1.4167,-1.4157,-1.4157,-1.4157,-1.4157,-1.4157,0,-1.4206,-1.4204,-1.4201,-1.4196,-1.4193,-1.4193,-1.419,-1.4186,-1.4181,-1.4178,-1.4174,-1.4167,-1.4162,-1.4158,-1.4152,-1.4149,-1.4148,-1.4147,-1.4147,-1.4146,-1.4155,-1.4157,-1.4148,-1.4148,-1.4148,-1.4148,-1.4148,-1.4148,-1.4202,-1.4196,-1.4195,-1.4188,-1.4186,-1.4181,-1.4178,-1.4175,-1.4172,-1.4165,-1.4161,-1.4158,-1.4154,-1.4148,-1.4143,-1.4142,-1.4139,-1.4138,-1.4137,-1.4145,-1.4146,-1.4147,-1.4148,-1.4138,-1.4138,-1.4129,-1.4128,-1.4128]}]]